User: anonymous   Login
Location: ActonStarParty
(42.4766°N, 71.4538°W)
Time: 04:58:11
(UTC-05:00)
Language:

ITAMSAT 1 - Orbit

View from above orbital plane
View from above orbital plane
View from above satellite
View from above satellite

Ground track
Ground track

The orbit data is extracted from the following two-line orbital elements,

1 22826U 93061D   16345.06736248  .00000023  00000-0  26361-4 0  9991
2 22826  98.7794 302.7190 0009398 148.7027 211.4716 14.30306308210548
Epoch (UTC): 10 December 2016 01:37:00
Eccentricity: 0.0009398
inclination: 98.7794°
perigee height: 784 km
apogee height: 797 km
right ascension of ascending node: 302.7190°
argument of perigee: 148.7027°
revolutions per day: 14.30306308
mean anomaly at epoch: 211.4716°
orbit number at epoch: 21054

The dashed part of the orbit path shows where the satellite is in the earth's shadow,  

DLR